Warning: Javascript must be enabled to use all the features on this page!


Page Loading - Please Wait...

* We've detected you're using a mobile device. Find our Next Generation Station Page here.
Click to hideNews Bulletins
  • Explore the NEW USGS National Water Dashboard interactive map to access real-time water data from over 13,500 stations nationwide.
  • Full News RSS icon
  • USGS has scheduled planned maintenance to our IT infrastructure, starting Tuesday, June 28, 2022, from 7:00-9:00am Eastern Daylight Time (EDT). During the maintenance period, there will be a short interruption in the availability of the most recent time-series data. Any backlog will be made available following conclusion of the scheduled maintenance.

Peak Streamflow for Colorado

Click to hide state-specific text


USGS 09114500 GUNNISON RIVER NEAR GUNNISON, CO.

Gunnison County, Colorado
Hydrologic Unit Code 14020002
Latitude  38°32'31", Longitude 106°56'57" NAD27
Drainage area 1,011  square miles
Gage datum 7,655 feet above NGVD29
Output formats
Table
Graph
Tab-separated file
peakfq (watstore) format
Reselect output format
Water
Year
Date Gage
Height
(feet)
Stream-
flow
(cfs)
1911 1911-06-22 3.30 4,1701,2
1912 1912-06-05 4.15 5,8802
1913 1913-05-27 2.55 3,1802
1914 1914-06-01 3.90 5,6802
1915 1915-06-01   2,2701,2
1916 1916-06-14 3.35 4,890
1917 1917-06-22 4.20 6,250
1918 1918-06-13 4.05 11,4002
1919 1919-05-21 3.80 3,4002
1920 1920-06-01 5.15 7,6802
1921 1921-06-12 5.00 6,6002
1922 1922-05-30 4.40 5,2002
1923 1923-05-28 4.50 5,3302
1924 1924-06-14 4.30 4,7502
1925 1925-05-29 3.16 2,5902
1926 1926-06-07 3.90 4,1402
1927 1927-05-19 4.20 5,0902
1928 1928-05-30 4.50 5,7502
1945 1945-06-25 4.32 2,6205
1946 1946-06-08 4.84 3,4805
1947 1947-06-21 5.07 3,9505
1948 1948-05-22 5.58 5,6005
1949 1949-06-19 5.94 5,1905
1950 1950-06-03 4.31 2,5605
1951 1951-05-29 4.91 3,3205
1952 1952-06-16 6.07 5,7105
1953 1953-06-14 5.26 4,2205
1954 1954-05-23 3.13 1,3305
1955 1955-06-09 3.72 1,9705
1956 1956-06-03 4.49 3,2605
1957 1957-07-01 6.74 9,3205
1958 1958-06-07 5.482 4,6705
1959 1959-06-09 3.96 2,0805
1960 1960-06-18 4.37 2,6905
1961 1961-05-28 3.83 2,0305
1962 1962-05-13 5.77 5,4405
1963 1963-05-21 3.26 1,4605
1964 1964-05-27 4.32 2,7405
1965 1965-07-12 5.22 4,9605
1966 1966-06-01 3.49 2,2805
1967 1967-05-24 3.90 2,8905
1968 1968-06-03 4.72 4,2805
1969 1969-05-31 3.87 2,9405
1970 1970-05-19 4.736 4,4205
1971 1971-06-18 3.88 3,2905
1972 1972-06-09 3.84 3,7405
1973 1973-06-14 4.462 3,9005
1974 1974-05-10 3.482 2,6905
1975 1975-06-16 3.982 3,5805
1976 1976-06-09 3.162 2,0805
1977 1977-06-08 2.16 7085
1978 1978-06-16 4.56 4,5705
1979 1979-05-28 5.14 5,6405
1980 1980-06-11 4.85 4,7005
1981 1981-06-08 2.96 1,6805
1982 1982-06-18 3.65 3,0605
1983 1983-06-20 4.13 4,0805
1984 1984-05-25 5.42 7,5705
1985 1985-06-09 4.30 4,7705
1986 1986-06-07 4.492 4,9705
1987 1987-06-09 3.50 3,3805
1988 1988-06-06 2.88 2,4305
1989 1989-05-30 2.74 1,9505
1990 1990-06-11 2.97 2,4305
1991 1991-06-15 3.21 3,0205
1992 1992-05-27 2.65 1,9305
1993 1993-05-28 4.24 4,6005
1994 1994-06-02 3.21 2,8405
1995 1995-06-18 5.56 7,6205
1996 1996-05-18 4.33 4,9905
1997 1997-06-09 4.73 6,0105
1998 1998-06-03 3.02 2,4905
1999 1999-05-24 3.23 2,8005
2000 2000-05-30 3.10 2,5205
2001 2001-05-17   1,9901,2,5
2002 2002-06-01 1.96 8755
2003 2003-05-30 3.60 3,5105
2004 2004-06-07 2.74 1,8705
2005 2005-05-25 3.66 3,5705
2006 2006-05-23 3.52 3,3105
2007 2007-05-20 2.67 1,9105
2008 2008-05-22 4.48 5,2605
2009 2009-05-19 3.77 3,7805
2010 2010-06-07 3.88 3,9905
2011 2011-06-07 4.20 4,6405
2012 2012-06-02 1.83 7605
2013 2013-06-10 2.77 2,1005
2014 2014-06-02 4.12 4,5905
2015 2015-06-12 4.23 4,8205
2016 2016-06-06 3.50 3,3705
2017 2017-06-09 4.17 4,7305
2018 2018-05-26 2.19 1,3005
2019 2019-06-15 4.39 5,2505
2020 2020-06-07 2.96 2,6005
2021 2021-06-06 2.322 1,7205
?
  Peak Gage-Height Qualification Codes.
?
  Peak Streamflow Qualification Codes.